Time,TemperatureF,DewpointF,PressureIn,WindDirection,WindDirectionDegrees,WindSpeedMPH,WindSpeedGustMPH,Humidity,HourlyPrecipIn,Conditions,Clouds,dailyrainin,SoftwareType,DateUTC
2013-03-12 00:00:00,40.3,38.7,30.11,SW,221,2.0,5.0,94,0.00,,---,0.00,VWS V14.01,2013-03-12 04:00:00,
2013-03-12 00:02:00,40.3,38.7,30.11,SW,215,2.0,5.0,94,0.00,,---,0.00,VWS V14.01,2013-03-12 04:02:00,
2013-03-12 00:05:00,40.3,38.7,30.11,SSW,203,0.0,4.0,94,0.00,,---,0.00,VWS V14.01,2013-03-12 04:05:00,
2013-03-12 00:10:00,40.3,38.7,30.10,SSW,194,1.0,2.0,94,0.00,,---,0.00,VWS V14.01,2013-03-12 04:10:00,
2013-03-12 00:15:00,40.3,38.7,30.10,SSW,198,1.0,3.0,94,0.00,,---,0.00,VWS V14.01,2013-03-12 04:15:00,
2013-03-12 00:16:00,40.2,38.6,30.10,SSW,198,1.0,3.0,94,0.00,,---,0.00,VWS V14.01,2013-03-12 04:16:00,
2013-03-12 00:20:00,40.2,38.6,30.10,SSW,198,0.0,3.0,94,0.00,,---,0.00,VWS V14.01,2013-03-12 04:20:00,
2013-03-12 00:21:00,40.1,38.5,30.10,SW,215,0.0,3.0,94,0.00,,---,0.00,VWS V14.01,2013-03-12 04:21:00,
2013-03-12 00:25:00,40.0,38.4,30.10,SW,215,0.0,3.0,94,0.00,,---,0.00,VWS V14.01,2013-03-12 04:25:00,
2013-03-12 00:27:00,39.9,38.3,30.10,South,186,3.0,3.0,94,0.00,,---,0.00,VWS V14.01,2013-03-12 04:27:00,
2013-03-12 00:30:00,40.0,38.4,30.10,SSW,208,1.0,6.0,94,0.00,,---,0.00,VWS V14.01,2013-03-12 04:30:00,
2013-03-12 00:32:00,40.0,38.4,30.09,South,172,1.0,4.0,94,0.00,,---,0.00,VWS V14.01,2013-03-12 04:32:00,
2013-03-12 00:35:00,40.1,38.5,30.09,South,184,1.0,4.0,94,0.00,,---,0.00,VWS V14.01,2013-03-12 04:35:00,
2013-03-12 00:37:00,40.0,38.4,30.09,South,184,0.0,1.0,94,0.00,,---,0.00,VWS V14.01,2013-03-12 04:37:00,
2013-03-12 00:40:00,40.0,38.4,30.09,SSW,196,2.0,4.0,94,0.00,,---,0.00,VWS V14.01,2013-03-12 04:40:00,
2013-03-12 00:42:00,40.2,38.9,30.09,SSE,157,2.0,5.0,95,0.00,,---,0.00,VWS V14.01,2013-03-12 04:42:00,
2013-03-12 00:45:00,40.2,38.9,30.09,SSE,157,0.0,5.0,95,0.00,,---,0.00,VWS V14.01,2013-03-12 04:45:00,
2013-03-12 00:47:00,40.3,39.0,30.09,South,190,0.0,2.0,95,0.00,,---,0.00,VWS V14.01,2013-03-12 04:47:00,
2013-03-12 00:50:00,40.4,39.1,30.09,SSW,196,1.0,2.0,95,0.00,,---,0.00,VWS V14.01,2013-03-12 04:50:00,
2013-03-12 00:52:00,40.4,39.1,30.09,SSW,194,0.0,2.0,95,0.00,,---,0.00,VWS V14.01,2013-03-12 04:52:00,
2013-03-12 00:55:00,40.4,39.1,30.09,SSW,194,1.0,2.0,95,0.00,,---,0.00,VWS V14.01,2013-03-12 04:55:00,
2013-03-12 00:57:00,40.4,39.1,30.09,South,182,0.0,3.0,95,0.00,,---,0.00,VWS V14.01,2013-03-12 04:57:00,
2013-03-12 01:00:00,40.4,39.1,30.09,South,182,0.0,3.0,95,0.00,,---,0.00,VWS V14.01,2013-03-12 05:00:00,
2013-03-12 01:03:00,40.3,39.0,30.10,SE,137,1.0,3.0,95,0.00,,---,0.00,VWS V14.01,2013-03-12 05:03:00,
2013-03-12 01:05:00,40.3,39.0,30.10,SE,137,1.0,3.0,95,0.00,,---,0.00,VWS V14.01,2013-03-12 05:05:00,
2013-03-12 01:08:00,40.4,39.1,30.10,SSW,199,0.0,2.0,95,0.00,,---,0.00,VWS V14.01,2013-03-12 05:08:00,
2013-03-12 01:10:00,40.4,39.1,30.10,SSW,199,0.0,2.0,95,0.00,,---,0.00,VWS V14.01,2013-03-12 05:10:00,
2013-03-12 01:13:00,40.5,39.2,30.09,South,188,1.0,2.0,95,0.00,,---,0.00,VWS V14.01,2013-03-12 05:13:00,
2013-03-12 01:15:00,40.5,39.2,30.09,South,188,1.0,2.0,95,0.00,,---,0.00,VWS V14.01,2013-03-12 05:15:00,
2013-03-12 01:18:00,40.5,39.2,30.09,South,188,0.0,1.0,95,0.00,,---,0.00,VWS V14.01,2013-03-12 05:18:00,
2013-03-12 01:20:00,40.5,39.2,30.09,South,188,0.0,1.0,95,0.00,,---,0.00,VWS V14.01,2013-03-12 05:20:00,
2013-03-12 01:23:00,40.4,39.1,30.09,SSE,156,0.0,3.0,95,0.00,,---,0.00,VWS V14.01,2013-03-12 05:23:00,
2013-03-12 01:25:00,40.4,39.1,30.09,SSE,156,0.0,3.0,95,0.00,,---,0.00,VWS V14.01,2013-03-12 05:25:00,
2013-03-12 01:28:00,40.4,39.1,30.09,SSE,156,0.0,1.0,95,0.00,,---,0.00,VWS V14.01,2013-03-12 05:28:00,
2013-03-12 01:30:00,40.4,39.1,30.09,SSE,156,0.0,1.0,95,0.00,,---,0.00,VWS V14.01,2013-03-12 05:30:00,
2013-03-12 01:33:00,40.5,39.2,30.09,SSE,156,0.0,1.0,95,0.00,,---,0.00,VWS V14.01,2013-03-12 05:33:00,
2013-03-12 01:35:00,40.5,39.2,30.09,SSE,156,0.0,1.0,95,0.00,,---,0.00,VWS V14.01,2013-03-12 05:35:00,
2013-03-12 01:38:00,40.4,39.1,30.09,SSE,156,0.0,0.0,95,0.00,,---,0.00,VWS V14.01,2013-03-12 05:38:00,
2013-03-12 01:40:00,40.4,39.1,30.09,SSE,156,0.0,1.0,95,0.00,,---,0.00,VWS V14.01,2013-03-12 05:40:00,
2013-03-12 01:43:00,40.5,39.2,30.09,SE,136,0.0,0.0,95,0.00,,---,0.00,VWS V14.01,2013-03-12 05:43:00,
2013-03-12 01:45:00,40.5,39.2,30.09,SE,136,0.0,3.0,95,0.00,,---,0.00,VWS V14.01,2013-03-12 05:45:00,
2013-03-12 01:48:00,40.6,39.3,30.08,SE,136,0.0,0.0,95,0.00,,---,0.00,VWS V14.01,2013-03-12 05:48:00,
2013-03-12 01:50:00,40.6,39.3,30.09,SE,136,0.0,1.0,95,0.00,,---,0.00,VWS V14.01,2013-03-12 05:50:00,
2013-03-12 01:53:00,40.6,39.3,30.08,SE,136,1.0,1.0,95,0.00,,---,0.00,VWS V14.01,2013-03-12 05:53:00,
2013-03-12 01:55:00,40.6,39.3,30.08,SE,136,0.0,1.0,95,0.00,,---,0.00,VWS V14.01,2013-03-12 05:55:00,
2013-03-12 01:58:00,40.6,39.3,30.08,SE,136,0.0,0.0,95,0.00,,---,0.00,VWS V14.01,2013-03-12 05:58:00,
2013-03-12 02:00:00,40.6,39.3,30.08,SE,136,0.0,1.0,95,0.00,,---,0.00,VWS V14.01,2013-03-12 06:00:00,
2013-03-12 02:03:00,40.6,39.3,30.08,SE,145,0.0,0.0,95,0.00,,---,0.00,VWS V14.01,2013-03-12 06:03:00,
2013-03-12 02:05:00,40.6,39.3,30.08,SE,145,0.0,2.0,95,0.00,,---,0.00,VWS V14.01,2013-03-12 06:05:00,
2013-03-12 02:08:00,40.5,39.2,30.08,SE,145,0.0,0.0,95,0.00,,---,0.00,VWS V14.01,2013-03-12 06:08:00,
2013-03-12 02:10:00,40.5,39.2,30.08,SE,145,0.0,1.0,95,0.00,,---,0.00,VWS V14.01,2013-03-12 06:10:00,
2013-03-12 02:14:00,40.6,39.3,30.08,SSE,150,0.0,0.0,95,0.00,,---,0.00,VWS V14.01,2013-03-12 06:14:00,
2013-03-12 02:15:00,40.6,39.3,30.08,SSE,150,0.0,3.0,95,0.00,,---,0.00,VWS V14.01,2013-03-12 06:15:00,
2013-03-12 02:19:00,40.6,39.3,30.07,SSE,150,1.0,1.0,95,0.00,,---,0.00,VWS V14.01,2013-03-12 06:19:00,
2013-03-12 02:20:00,40.6,39.3,30.08,SSE,150,0.0,1.0,95,0.00,,---,0.00,VWS V14.01,2013-03-12 06:20:00,
2013-03-12 02:24:00,40.5,39.2,30.07,SE,136,3.0,3.0,95,0.00,,---,0.00,VWS V14.01,2013-03-12 06:24:00,
2013-03-12 02:25:00,40.6,39.3,30.07,SE,136,0.0,2.0,95,0.00,,---,0.00,VWS V14.01,2013-03-12 06:25:00,
2013-03-12 02:29:00,40.5,39.2,30.07,SSW,198,1.0,3.0,95,0.00,,---,0.00,VWS V14.01,2013-03-12 06:29:00,
2013-03-12 02:30:00,40.5,39.2,30.07,SE,136,0.0,3.0,95,0.00,,---,0.00,VWS V14.01,2013-03-12 06:30:00,
2013-03-12 02:34:00,40.7,39.7,30.07,SW,225,2.0,2.0,96,0.00,,---,0.00,VWS V14.01,2013-03-12 06:34:00,
2013-03-12 02:35:00,40.6,39.5,30.07,WSW,242,1.0,4.0,96,0.00,,---,0.00,VWS V14.01,2013-03-12 06:35:00,
2013-03-12 02:39:00,40.7,39.7,30.07,SSW,211,0.0,1.0,96,0.00,,---,0.00,VWS V14.01,2013-03-12 06:39:00,
2013-03-12 02:40:00,40.7,39.7,30.07,SSW,211,1.0,4.0,96,0.00,,---,0.00,VWS V14.01,2013-03-12 06:40:00,
2013-03-12 02:44:00,40.8,39.8,30.07,SE,136,0.0,4.0,96,0.00,,---,0.00,VWS V14.01,2013-03-12 06:44:00,
2013-03-12 02:45:00,40.7,39.7,30.07,SSW,211,1.0,3.0,96,0.00,,---,0.00,VWS V14.01,2013-03-12 06:45:00,
2013-03-12 02:49:00,40.8,39.8,30.07,SSW,208,0.0,2.0,96,0.00,,---,0.00,VWS V14.01,2013-03-12 06:49:00,
2013-03-12 02:50:00,40.8,39.8,30.07,SSW,208,0.0,4.0,96,0.00,,---,0.00,VWS V14.01,2013-03-12 06:50:00,
2013-03-12 02:55:00,40.9,39.8,30.06,SSE,148,1.0,2.0,96,0.00,,---,0.00,VWS V14.01,2013-03-12 06:55:00,
2013-03-12 03:00:00,41.0,40.0,30.06,SSW,207,0.0,2.0,96,0.00,,---,0.00,VWS V14.01,2013-03-12 07:00:00,
2013-03-12 03:05:00,41.1,40.0,30.06,SSW,207,0.0,1.0,96,0.00,,---,0.00,VWS V14.01,2013-03-12 07:05:00,
2013-03-12 03:10:00,41.2,40.2,30.05,SSE,168,0.0,2.0,96,0.00,,---,0.00,VWS V14.01,2013-03-12 07:10:00,
2013-03-12 03:15:00,41.2,40.2,30.05,SSE,148,0.0,3.0,96,0.00,,---,0.00,VWS V14.01,2013-03-12 07:15:00,
2013-03-12 03:20:00,41.1,40.0,30.04,SE,126,0.0,4.0,96,0.00,,---,0.00,VWS V14.01,2013-03-12 07:20:00,
2013-03-12 03:25:00,41.1,40.0,30.04,SE,126,1.0,4.0,96,0.00,,---,0.00,VWS V14.01,2013-03-12 07:25:00,
2013-03-12 03:30:00,41.0,40.0,30.03,SE,140,2.0,2.0,96,0.00,,---,0.00,VWS V14.01,2013-03-12 07:30:00,
2013-03-12 03:35:00,41.0,40.0,30.03,ESE,110,3.0,3.0,96,0.00,,---,0.00,VWS V14.01,2013-03-12 07:35:00,
2013-03-12 03:36:00,41.0,40.0,30.03,SW,227,0.0,5.0,96,0.00,,---,0.00,VWS V14.01,2013-03-12 07:36:00,
2013-03-12 03:40:00,41.1,40.0,30.03,South,182,0.0,5.0,96,0.00,,---,0.00,VWS V14.01,2013-03-12 07:40:00,
2013-03-12 03:41:00,41.1,40.0,30.03,SW,235,2.0,3.0,96,0.00,,---,0.00,VWS V14.01,2013-03-12 07:41:00,
2013-03-12 03:45:00,41.1,40.0,30.03,SSE,157,0.0,4.0,96,0.00,,---,0.00,VWS V14.01,2013-03-12 07:45:00,
2013-03-12 03:46:00,41.1,40.0,30.03,SE,125,2.0,3.0,96,0.00,,---,0.00,VWS V14.01,2013-03-12 07:46:00,
2013-03-12 03:50:00,41.1,40.0,30.02,SSE,153,2.0,3.0,96,0.00,,---,0.00,VWS V14.01,2013-03-12 07:50:00,
2013-03-12 03:52:00,41.2,40.2,30.02,East,98,0.0,3.0,96,0.00,,---,0.00,VWS V14.01,2013-03-12 07:52:00,
2013-03-12 03:55:00,41.2,40.2,30.03,East,98,1.0,3.0,96,0.00,,---,0.00,VWS V14.01,2013-03-12 07:55:00,
2013-03-12 03:57:00,41.2,40.2,30.02,East,100,0.0,2.0,96,0.00,,---,0.00,VWS V14.01,2013-03-12 07:57:00,
2013-03-12 04:00:00,41.3,40.2,30.02,SSE,154,1.0,2.0,96,0.00,,---,0.00,VWS V14.01,2013-03-12 08:00:00,
2013-03-12 04:02:00,41.3,40.2,30.03,SE,144,0.0,4.0,96,0.00,,---,0.00,VWS V14.01,2013-03-12 08:02:00,
2013-03-12 04:05:00,41.3,40.2,30.03,SSE,153,0.0,4.0,96,0.00,,---,0.00,VWS V14.01,2013-03-12 08:05:00,
2013-03-12 04:07:00,41.3,40.2,30.03,SE,126,1.0,3.0,96,0.00,,---,0.00,VWS V14.01,2013-03-12 08:07:00,
2013-03-12 04:10:00,41.3,40.2,30.03,SE,126,0.0,3.0,96,0.00,,---,0.00,VWS V14.01,2013-03-12 08:10:00,
2013-03-12 04:12:00,41.3,40.2,30.03,SSE,147,0.0,2.0,96,0.00,,---,0.00,VWS V14.01,2013-03-12 08:12:00,
2013-03-12 04:15:00,41.3,40.2,30.03,SSE,147,0.0,2.0,96,0.00,,---,0.00,VWS V14.01,2013-03-12 08:15:00,
2013-03-12 04:18:00,41.4,40.3,30.03,South,184,0.0,4.0,96,0.00,,---,0.00,VWS V14.01,2013-03-12 08:18:00,
2013-03-12 04:20:00,41.4,40.3,30.03,South,184,0.0,4.0,96,0.00,,---,0.00,VWS V14.01,2013-03-12 08:20:00,
2013-03-12 04:23:00,41.5,40.5,30.02,SE,140,1.0,3.0,96,0.00,,---,0.00,VWS V14.01,2013-03-12 08:23:00,
2013-03-12 04:25:00,41.5,40.5,30.02,SE,140,0.0,3.0,96,0.00,,---,0.00,VWS V14.01,2013-03-12 08:25:00,
2013-03-12 04:28:00,41.4,40.3,30.02,SE,140,0.0,1.0,96,0.00,,---,0.00,VWS V14.01,2013-03-12 08:28:00,
2013-03-12 04:30:00,41.4,40.3,30.02,SE,140,0.0,1.0,96,0.00,,---,0.00,VWS V14.01,2013-03-12 08:30:00,
2013-03-12 04:33:00,41.4,40.3,30.02,SE,135,0.0,1.0,96,0.00,,---,0.00,VWS V14.01,2013-03-12 08:33:00,
2013-03-12 04:35:00,41.4,40.3,30.02,SE,135,0.0,3.0,96,0.00,,---,0.00,VWS V14.01,2013-03-12 08:35:00,
2013-03-12 04:38:00,41.5,40.5,30.03,South,176,1.0,3.0,96,0.00,,---,0.00,VWS V14.01,2013-03-12 08:38:00,
2013-03-12 04:40:00,41.5,40.5,30.03,SE,135,0.0,2.0,96,0.00,,---,0.00,VWS V14.01,2013-03-12 08:40:00,
2013-03-12 04:44:00,41.6,40.5,30.02,SSE,168,0.0,1.0,96,0.00,,---,0.00,VWS V14.01,2013-03-12 08:44:00,
2013-03-12 04:45:00,41.6,40.5,30.02,SSE,168,0.0,3.0,96,0.00,,---,0.00,VWS V14.01,2013-03-12 08:45:00,
2013-03-12 04:49:00,41.7,40.7,30.02,SE,131,1.0,2.0,96,0.00,,---,0.00,VWS V14.01,2013-03-12 08:49:00,
2013-03-12 04:50:00,41.6,40.5,30.02,SSE,168,0.0,1.0,96,0.00,,---,0.00,VWS V14.01,2013-03-12 08:50:00,
2013-03-12 04:54:00,41.7,40.7,30.02,SE,131,0.0,1.0,96,0.00,,---,0.00,VWS V14.01,2013-03-12 08:54:00,
2013-03-12 04:55:00,41.7,40.7,30.02,SE,131,0.0,2.0,96,0.00,,---,0.00,VWS V14.01,2013-03-12 08:55:00,
2013-03-12 04:59:00,41.6,40.5,30.02,SE,131,3.0,3.0,96,0.00,,---,0.00,VWS V14.01,2013-03-12 08:59:00,
2013-03-12 05:00:00,41.6,40.5,30.02,SE,131,2.0,3.0,96,0.00,,---,0.00,VWS V14.01,2013-03-12 09:00:00,
2013-03-12 05:05:00,41.6,40.5,30.02,SE,131,0.0,1.0,96,0.00,,---,0.00,VWS V14.01,2013-03-12 09:05:00,
2013-03-12 05:10:00,41.7,40.7,30.02,SE,131,0.0,0.0,96,0.00,,---,0.00,VWS V14.01,2013-03-12 09:10:00,
2013-03-12 05:15:00,41.7,40.7,30.02,SE,131,0.0,0.0,96,0.00,,---,0.00,VWS V14.01,2013-03-12 09:15:00,
2013-03-12 05:20:00,41.4,40.3,30.02,SE,131,0.0,0.0,96,0.00,,---,0.00,VWS V14.01,2013-03-12 09:20:00,
2013-03-12 05:25:00,41.2,40.2,30.02,SE,131,0.0,0.0,96,0.00,,---,0.00,VWS V14.01,2013-03-12 09:25:00,
2013-03-12 05:30:00,41.1,40.0,30.03,SE,131,0.0,0.0,96,0.00,,---,0.00,VWS V14.01,2013-03-12 09:30:00,
2013-03-12 05:35:00,41.0,40.0,30.02,SE,131,0.0,0.0,96,0.00,,---,0.00,VWS V14.01,2013-03-12 09:35:00,
2013-03-12 05:36:00,40.8,39.8,30.03,SE,131,0.0,0.0,96,0.00,,---,0.00,VWS V14.01,2013-03-12 09:36:00,
2013-03-12 05:40:00,40.7,39.7,30.03,SE,131,0.0,0.0,96,0.00,,---,0.00,VWS V14.01,2013-03-12 09:40:00,
2013-03-12 05:42:00,40.6,39.5,30.03,SE,131,0.0,0.0,96,0.00,,---,0.00,VWS V14.01,2013-03-12 09:42:00,
2013-03-12 05:45:00,40.6,39.5,30.03,SE,131,0.0,0.0,96,0.00,,---,0.00,VWS V14.01,2013-03-12 09:45:00,
2013-03-12 05:47:00,40.6,39.5,30.02,SE,131,0.0,1.0,96,0.00,,---,0.00,VWS V14.01,2013-03-12 09:47:00,
2013-03-12 05:50:00,40.6,39.5,30.02,SE,131,0.0,1.0,96,0.00,,---,0.00,VWS V14.01,2013-03-12 09:50:00,
2013-03-12 05:52:00,40.4,39.3,30.02,SE,131,0.0,1.0,96,0.00,,---,0.00,VWS V14.01,2013-03-12 09:52:00,
2013-03-12 05:55:00,40.3,39.2,30.02,SE,131,0.0,1.0,96,0.00,,---,0.00,VWS V14.01,2013-03-12 09:55:00,
2013-03-12 05:57:00,40.1,39.0,30.02,SE,131,0.0,1.0,96,0.00,,---,0.00,VWS V14.01,2013-03-12 09:57:00,
2013-03-12 06:00:00,40.1,39.0,30.02,SE,131,0.0,1.0,96,0.00,,---,0.00,VWS V14.01,2013-03-12 10:00:00,
2013-03-12 06:02:00,39.9,38.8,30.02,SE,131,0.0,1.0,96,0.00,,---,0.00,VWS V14.01,2013-03-12 10:02:00,
2013-03-12 06:05:00,39.9,38.8,30.02,SE,131,0.0,1.0,96,0.00,,---,0.00,VWS V14.01,2013-03-12 10:05:00,
2013-03-12 06:08:00,39.8,38.8,30.02,SE,131,0.0,1.0,96,0.00,,---,0.00,VWS V14.01,2013-03-12 10:08:00,
2013-03-12 06:10:00,39.8,38.8,30.02,SE,131,0.0,1.0,96,0.00,,---,0.00,VWS V14.01,2013-03-12 10:10:00,
2013-03-12 06:13:00,39.8,38.8,30.03,SE,131,0.0,1.0,96,0.00,,---,0.00,VWS V14.01,2013-03-12 10:13:00,
2013-03-12 06:15:00,39.8,38.8,30.03,SE,131,0.0,1.0,96,0.00,,---,0.00,VWS V14.01,2013-03-12 10:15:00,
2013-03-12 06:18:00,39.7,38.7,30.02,SE,131,0.0,2.0,96,0.00,,---,0.00,VWS V14.01,2013-03-12 10:18:00,
2013-03-12 06:20:00,39.7,38.7,30.02,SE,131,0.0,2.0,96,0.00,,---,0.00,VWS V14.01,2013-03-12 10:20:00,
2013-03-12 06:23:00,39.6,38.6,30.02,SE,131,0.0,1.0,96,0.00,,---,0.00,VWS V14.01,2013-03-12 10:23:00,
2013-03-12 06:25:00,39.6,38.6,30.02,SE,131,0.0,1.0,96,0.00,,---,0.00,VWS V14.01,2013-03-12 10:25:00,
2013-03-12 06:28:00,39.6,38.6,30.02,SE,131,1.0,2.0,96,0.00,,---,0.00,VWS V14.01,2013-03-12 10:28:00,
2013-03-12 06:30:00,39.6,38.6,30.02,SE,131,1.0,2.0,96,0.00,,---,0.00,VWS V14.01,2013-03-12 10:30:00,
2013-03-12 06:33:00,39.6,38.6,30.01,SE,131,0.0,2.0,96,0.00,,---,0.00,VWS V14.01,2013-03-12 10:33:00,
2013-03-12 06:35:00,39.6,38.6,30.01,SE,131,0.0,2.0,96,0.00,,---,0.00,VWS V14.01,2013-03-12 10:35:00,
2013-03-12 06:38:00,39.6,38.6,30.01,SE,131,1.0,3.0,96,0.00,,---,0.00,VWS V14.01,2013-03-12 10:38:00,
2013-03-12 06:40:00,39.6,38.6,30.01,SE,131,1.0,3.0,96,0.00,,---,0.00,VWS V14.01,2013-03-12 10:40:00,
2013-03-12 06:43:00,39.6,38.6,30.01,SE,131,0.0,2.0,96,0.00,,---,0.00,VWS V14.01,2013-03-12 10:43:00,
2013-03-12 06:45:00,39.6,38.6,30.01,SE,131,0.0,2.0,96,0.00,,---,0.00,VWS V14.01,2013-03-12 10:45:00,
2013-03-12 06:48:00,39.8,38.8,30.01,SE,131,0.0,1.0,96,0.00,,---,0.00,VWS V14.01,2013-03-12 10:48:00,
2013-03-12 06:50:00,39.8,38.8,30.01,SE,131,0.0,1.0,96,0.00,,---,0.00,VWS V14.01,2013-03-12 10:50:00,
2013-03-12 06:53:00,40.0,39.0,30.01,SE,131,0.0,2.0,96,0.00,,---,0.00,VWS V14.01,2013-03-12 10:53:00,
2013-03-12 06:55:00,40.0,39.0,30.01,SE,131,0.0,2.0,96,0.00,,---,0.00,VWS V14.01,2013-03-12 10:55:00,
2013-03-12 06:58:00,40.0,39.0,30.01,SE,131,0.0,2.0,96,0.00,,---,0.00,VWS V14.01,2013-03-12 10:58:00,
2013-03-12 07:00:00,40.0,39.0,30.01,SE,131,0.0,2.0,96,0.00,,---,0.00,VWS V14.01,2013-03-12 11:00:00,
2013-03-12 07:03:00,40.0,39.0,30.01,SE,131,2.0,3.0,96,0.00,,---,0.00,VWS V14.01,2013-03-12 11:03:00,
2013-03-12 07:05:00,40.0,39.0,30.01,SE,131,2.0,3.0,96,0.00,,---,0.00,VWS V14.01,2013-03-12 11:05:00,
2013-03-12 07:08:00,40.0,39.0,30.01,SE,131,1.0,1.0,96,0.00,,---,0.00,VWS V14.01,2013-03-12 11:08:00,
2013-03-12 07:10:00,40.0,39.0,30.01,SE,131,1.0,3.0,96,0.00,,---,0.00,VWS V14.01,2013-03-12 11:10:00,
2013-03-12 07:13:00,40.0,39.0,30.00,ESE,115,2.0,2.0,96,0.00,,---,0.00,VWS V14.01,2013-03-12 11:13:00,
2013-03-12 07:15:00,40.0,39.0,30.00,ESE,115,1.0,3.0,96,0.00,,---,0.00,VWS V14.01,2013-03-12 11:15:00,
2013-03-12 07:19:00,40.0,39.0,30.00,ESE,114,1.0,2.0,96,0.00,,---,0.00,VWS V14.01,2013-03-12 11:19:00,
2013-03-12 07:20:00,40.0,39.0,30.00,ESE,113,0.0,4.0,96,0.00,,---,0.00,VWS V14.01,2013-03-12 11:20:00,
2013-03-12 07:24:00,40.2,39.2,30.00,SE,126,0.0,2.0,96,0.00,,---,0.00,VWS V14.01,2013-03-12 11:24:00,
2013-03-12 07:25:00,40.1,39.0,30.00,SE,126,0.0,3.0,96,0.00,,---,0.00,VWS V14.01,2013-03-12 11:25:00,
2013-03-12 07:29:00,40.4,39.3,30.00,ESE,121,0.0,4.0,96,0.00,,---,0.00,VWS V14.01,2013-03-12 11:29:00,
2013-03-12 07:30:00,40.3,39.2,30.00,SE,130,3.0,3.0,96,0.00,,---,0.00,VWS V14.01,2013-03-12 11:30:00,
2013-03-12 07:34:00,40.5,39.7,30.00,ESE,121,1.0,1.0,97,0.00,,---,0.00,VWS V14.01,2013-03-12 11:34:00,
2013-03-12 07:35:00,40.5,39.7,30.00,ESE,121,1.0,4.0,97,0.00,,---,0.00,VWS V14.01,2013-03-12 11:35:00,
2013-03-12 07:39:00,40.7,39.9,30.00,SE,130,1.0,2.0,97,0.00,,---,0.00,VWS V14.01,2013-03-12 11:39:00,
2013-03-12 07:40:00,40.6,39.8,30.00,SE,130,1.0,3.0,97,0.00,,---,0.00,VWS V14.01,2013-03-12 11:40:00,
2013-03-12 07:44:00,40.8,40.0,30.00,SE,127,0.0,2.0,97,0.00,,---,0.00,VWS V14.01,2013-03-12 11:44:00,
2013-03-12 07:45:00,40.8,40.0,29.99,SE,130,0.0,2.0,97,0.00,,---,0.00,VWS V14.01,2013-03-12 11:45:00,
2013-03-12 07:50:00,40.9,39.8,30.00,SE,128,2.0,2.0,96,0.00,,---,0.00,VWS V14.01,2013-03-12 11:50:00,
2013-03-12 07:55:00,41.1,40.3,30.00,SE,126,0.0,3.0,97,0.00,,---,0.00,VWS V14.01,2013-03-12 11:55:00,
2013-03-12 08:00:00,41.2,40.4,30.00,SE,126,0.0,3.0,97,0.00,,---,0.00,VWS V14.01,2013-03-12 12:00:00,
2013-03-12 08:05:00,41.3,40.5,30.00,SE,126,0.0,2.0,97,0.00,,---,0.00,VWS V14.01,2013-03-12 12:05:00,
2013-03-12 08:10:00,41.7,40.9,30.00,SE,126,0.0,2.0,97,0.00,,---,0.00,VWS V14.01,2013-03-12 12:10:00,
2013-03-12 08:15:00,42.1,41.3,30.00,SE,126,1.0,2.0,97,0.00,,---,0.00,VWS V14.01,2013-03-12 12:15:00,
2013-03-12 08:20:00,42.3,41.5,30.00,SE,126,1.0,1.0,97,0.00,,---,0.00,VWS V14.01,2013-03-12 12:20:00,
2013-03-12 08:25:00,42.4,41.6,30.00,SE,126,0.0,1.0,97,0.00,,---,0.00,VWS V14.01,2013-03-12 12:25:00,
2013-03-12 08:30:00,42.4,41.6,30.00,ESE,114,3.0,3.0,97,0.00,,---,0.00,VWS V14.01,2013-03-12 12:30:00,
2013-03-12 08:35:00,42.2,41.4,29.99,ESE,111,1.0,3.0,97,0.00,,---,0.00,VWS V14.01,2013-03-12 12:35:00,
2013-03-12 08:40:00,42.1,41.3,29.98,East,92,1.0,2.0,97,0.00,,---,0.00,VWS V14.01,2013-03-12 12:40:00,
2013-03-12 08:45:00,42.2,41.4,29.99,East,92,1.0,2.0,97,0.00,,---,0.00,VWS V14.01,2013-03-12 12:45:00,
2013-03-12 08:46:00,42.2,41.4,29.99,SE,132,0.0,3.0,97,0.00,,---,0.00,VWS V14.01,2013-03-12 12:46:00,
2013-03-12 08:50:00,42.3,41.5,30.00,SE,132,2.0,3.0,97,0.00,,---,0.00,VWS V14.01,2013-03-12 12:50:00,
2013-03-12 08:51:00,42.4,41.6,29.99,SE,137,0.0,5.0,97,0.00,,---,0.00,VWS V14.01,2013-03-12 12:51:00,
2013-03-12 08:55:00,42.5,41.7,30.00,ESE,103,1.0,5.0,97,0.00,,---,0.00,VWS V14.01,2013-03-12 12:55:00,
2013-03-12 08:56:00,42.7,41.9,30.00,ESE,121,2.0,4.0,97,0.00,,---,0.00,VWS V14.01,2013-03-12 12:56:00,
2013-03-12 09:00:00,42.7,41.9,30.00,ESE,115,2.0,6.0,97,0.00,,---,0.00,VWS V14.01,2013-03-12 13:00:00,
2013-03-12 09:02:00,43.0,42.2,30.00,SE,135,2.0,4.0,97,0.00,,---,0.00,VWS V14.01,2013-03-12 13:02:00,
2013-03-12 09:05:00,43.0,42.2,30.00,SE,135,2.0,4.0,97,0.00,,---,0.00,VWS V14.01,2013-03-12 13:05:00,
2013-03-12 09:07:00,43.3,42.5,29.99,ESE,115,1.0,6.0,97,0.00,,---,0.00,VWS V14.01,2013-03-12 13:07:00,
2013-03-12 09:10:00,43.4,42.6,30.00,SE,136,2.0,6.0,97,0.00,,---,0.00,VWS V14.01,2013-03-12 13:10:00,
2013-03-12 09:12:00,43.7,42.9,30.00,ESE,118,3.0,5.0,97,0.00,,---,0.00,VWS V14.01,2013-03-12 13:12:00,
2013-03-12 09:15:00,43.7,42.9,30.00,ESE,118,2.0,5.0,97,0.00,,---,0.00,VWS V14.01,2013-03-12 13:15:00,
2013-03-12 09:17:00,44.0,43.2,30.00,SSE,148,0.0,3.0,97,0.00,,---,0.00,VWS V14.01,2013-03-12 13:17:00,
2013-03-12 09:20:00,44.0,43.2,30.00,SSE,148,0.0,3.0,97,0.00,,---,0.00,VWS V14.01,2013-03-12 13:20:00,
2013-03-12 09:23:00,44.1,43.3,30.00,SSE,148,0.0,2.0,97,0.00,,---,0.00,VWS V14.01,2013-03-12 13:23:00,
2013-03-12 09:25:00,44.1,43.3,30.00,SSE,148,0.0,2.0,97,0.00,,---,0.00,VWS V14.01,2013-03-12 13:25:00,
2013-03-12 09:28:00,44.2,43.4,30.00,SSE,148,0.0,2.0,97,0.00,,---,0.00,VWS V14.01,2013-03-12 13:28:00,
2013-03-12 09:30:00,44.2,43.4,30.00,SSE,148,0.0,2.0,97,0.00,,---,0.00,VWS V14.01,2013-03-12 13:30:00,
2013-03-12 09:33:00,44.3,43.5,29.99,SE,125,1.0,2.0,97,0.00,,---,0.00,VWS V14.01,2013-03-12 13:33:00,
2013-03-12 09:35:00,44.3,43.5,29.99,SE,125,1.0,2.0,97,0.00,,---,0.00,VWS V14.01,2013-03-12 13:35:00,
2013-03-12 09:38:00,44.4,43.6,30.00,SE,125,0.0,2.0,97,0.00,,---,0.00,VWS V14.01,2013-03-12 13:38:00,
2013-03-12 09:40:00,44.4,43.6,30.00,SE,125,0.0,2.0,97,0.00,,---,0.00,VWS V14.01,2013-03-12 13:40:00,
2013-03-12 09:43:00,44.7,43.9,30.00,SE,126,0.0,2.0,97,0.00,,---,0.00,VWS V14.01,2013-03-12 13:43:00,
2013-03-12 09:45:00,44.7,43.9,30.00,SE,126,0.0,2.0,97,0.00,,---,0.00,VWS V14.01,2013-03-12 13:45:00,
2013-03-12 09:48:00,44.8,44.0,30.00,SE,127,0.0,2.0,97,0.00,,---,0.00,VWS V14.01,2013-03-12 13:48:00,
2013-03-12 09:50:00,44.8,44.0,30.00,SE,127,0.0,2.0,97,0.00,,---,0.00,VWS V14.01,2013-03-12 13:50:00,
2013-03-12 09:53:00,45.0,44.2,29.99,SE,127,0.0,1.0,97,0.00,,---,0.00,VWS V14.01,2013-03-12 13:53:00,
2013-03-12 09:55:00,45.0,44.2,29.99,SE,127,0.0,1.0,97,0.00,,---,0.00,VWS V14.01,2013-03-12 13:55:00,
2013-03-12 09:58:00,45.1,44.3,29.99,SE,127,0.0,2.0,97,0.00,,---,0.00,VWS V14.01,2013-03-12 13:58:00,
2013-03-12 10:00:00,45.1,44.3,29.99,SE,127,0.0,2.0,97,0.00,,---,0.00,VWS V14.01,2013-03-12 14:00:00,
2013-03-12 10:03:00,45.3,44.5,29.99,SE,130,0.0,2.0,97,0.00,,---,0.00,VWS V14.01,2013-03-12 14:03:00,
2013-03-12 10:05:00,45.3,44.5,29.99,SE,130,0.0,2.0,97,0.00,,---,0.00,VWS V14.01,2013-03-12 14:05:00,
2013-03-12 10:08:00,45.5,44.7,29.99,SE,133,0.0,3.0,97,0.00,,---,0.00,VWS V14.01,2013-03-12 14:08:00,
2013-03-12 10:10:00,45.5,44.7,29.99,SE,133,0.0,3.0,97,0.00,,---,0.00,VWS V14.01,2013-03-12 14:10:00,
2013-03-12 10:13:00,45.8,45.0,29.98,SE,133,2.0,3.0,97,0.00,,---,0.00,VWS V14.01,2013-03-12 14:13:00,
2013-03-12 10:15:00,45.8,45.0,29.98,SE,133,2.0,3.0,97,0.00,,---,0.00,VWS V14.01,2013-03-12 14:15:00,
2013-03-12 10:18:00,46.0,45.2,29.98,SE,125,0.0,4.0,97,0.00,,---,0.00,VWS V14.01,2013-03-12 14:18:00,
2013-03-12 10:20:00,46.0,45.2,29.98,SE,125,0.0,4.0,97,0.00,,---,0.00,VWS V14.01,2013-03-12 14:20:00,
2013-03-12 10:23:00,46.1,45.3,29.98,SE,128,2.0,2.0,97,0.00,,---,0.00,VWS V14.01,2013-03-12 14:23:00,
2013-03-12 10:25:00,46.1,45.3,29.98,SE,128,2.0,2.0,97,0.00,,---,0.00,VWS V14.01,2013-03-12 14:25:00,
2013-03-12 10:28:00,46.3,45.5,29.98,SSW,196,1.0,1.0,97,0.00,,---,0.00,VWS V14.01,2013-03-12 14:28:00,
2013-03-12 10:30:00,46.3,45.5,29.98,SSW,196,0.0,3.0,97,0.00,,---,0.00,VWS V14.01,2013-03-12 14:30:00,
2013-03-12 10:34:00,46.6,45.8,29.98,ESE,121,1.0,1.0,97,0.00,,---,0.00,VWS V14.01,2013-03-12 14:34:00,
2013-03-12 10:35:00,46.5,45.7,29.98,ESE,121,0.0,4.0,97,0.00,,---,0.00,VWS V14.01,2013-03-12 14:35:00,
2013-03-12 10:39:00,47.0,46.2,29.97,SSW,209,2.0,3.0,97,0.00,,---,0.00,VWS V14.01,2013-03-12 14:39:00,
2013-03-12 10:40:00,47.0,46.2,29.97,SSW,209,0.0,8.0,97,0.00,,---,0.00,VWS V14.01,2013-03-12 14:40:00,
2013-03-12 10:44:00,47.4,46.6,29.97,ESE,113,0.0,4.0,97,0.00,,---,0.00,VWS V14.01,2013-03-12 14:44:00,
2013-03-12 10:45:00,47.4,46.6,29.97,SSW,211,1.0,4.0,97,0.00,,---,0.00,VWS V14.01,2013-03-12 14:45:00,
2013-03-12 10:49:00,47.5,46.7,29.97,SSW,208,2.0,7.0,97,0.00,,---,0.00,VWS V14.01,2013-03-12 14:49:00,
2013-03-12 10:50:00,47.5,46.7,29.97,SSE,163,1.0,6.0,97,0.00,,---,0.00,VWS V14.01,2013-03-12 14:50:00,
2013-03-12 10:54:00,47.7,46.9,29.97,SSW,194,0.0,3.0,97,0.00,,---,0.00,VWS V14.01,2013-03-12 14:54:00,
2013-03-12 10:55:00,47.6,46.8,29.96,SW,232,1.0,7.0,97,0.00,,---,0.00,VWS V14.01,2013-03-12 14:55:00,
2013-03-12 10:59:00,47.8,47.0,29.96,ESE,109,2.0,4.0,97,0.00,,---,0.00,VWS V14.01,2013-03-12 14:59:00,
2013-03-12 11:00:00,47.7,46.9,29.96,SSE,167,1.0,8.0,97,0.00,,---,0.00,VWS V14.01,2013-03-12 15:00:00,
2013-03-12 11:05:00,48.1,47.3,29.96,South,178,1.0,7.0,97,0.00,,---,0.00,VWS V14.01,2013-03-12 15:05:00,
2013-03-12 11:10:00,48.5,47.7,29.95,SE,131,0.0,5.0,97,0.00,,---,0.00,VWS V14.01,2013-03-12 15:10:00,
2013-03-12 11:15:00,48.7,47.9,29.95,SSE,157,5.0,10.0,97,0.00,,---,0.00,VWS V14.01,2013-03-12 15:15:00,
2013-03-12 11:20:00,48.8,48.0,29.96,SSW,195,3.0,6.0,97,0.00,,---,0.00,VWS V14.01,2013-03-12 15:20:00,
2013-03-12 11:25:00,48.7,47.9,29.95,SSE,153,0.0,7.0,97,0.00,,---,0.00,VWS V14.01,2013-03-12 15:25:00,
2013-03-12 11:26:00,48.7,47.9,29.95,East,85,3.0,7.0,97,0.00,,---,0.00,VWS V14.01,2013-03-12 15:26:00,
2013-03-12 11:30:00,48.8,48.0,29.95,South,178,6.0,7.0,97,0.00,,---,0.00,VWS V14.01,2013-03-12 15:30:00,
2013-03-12 11:31:00,48.9,48.1,29.95,SW,228,2.0,6.0,97,0.00,,---,0.00,VWS V14.01,2013-03-12 15:31:00,
2013-03-12 11:35:00,49.1,48.0,29.95,SE,140,2.0,6.0,96,0.00,,---,0.00,VWS V14.01,2013-03-12 15:35:00,
2013-03-12 11:36:00,49.1,48.0,29.95,SSE,167,3.0,8.0,96,0.00,,---,0.00,VWS V14.01,2013-03-12 15:36:00,
2013-03-12 11:40:00,49.1,48.0,29.95,SE,135,0.0,8.0,96,0.00,,---,0.00,VWS V14.01,2013-03-12 15:40:00,
2013-03-12 11:41:00,49.2,48.1,29.95,West,261,1.0,6.0,96,0.00,,---,0.00,VWS V14.01,2013-03-12 15:41:00,
2013-03-12 11:45:00,49.3,48.2,29.94,South,188,4.0,6.0,96,0.00,,---,0.00,VWS V14.01,2013-03-12 15:45:00,
2013-03-12 11:46:00,49.6,48.5,29.94,South,171,2.0,8.0,96,0.00,,---,0.00,VWS V14.01,2013-03-12 15:46:00,
2013-03-12 11:50:00,49.7,48.6,29.94,South,179,3.0,8.0,96,0.00,,---,0.00,VWS V14.01,2013-03-12 15:50:00,
2013-03-12 11:52:00,50.0,48.9,29.94,SSW,203,0.0,5.0,96,0.00,,---,0.00,VWS V14.01,2013-03-12 15:52:00,
2013-03-12 11:55:00,50.0,48.6,29.94,SSE,167,0.0,5.0,95,0.00,,---,0.00,VWS V14.01,2013-03-12 15:55:00,
2013-03-12 11:57:00,50.2,48.8,29.94,SE,126,6.0,13.0,95,0.00,,---,0.00,VWS V14.01,2013-03-12 15:57:00,
2013-03-12 12:00:00,50.2,48.8,29.94,SSW,212,3.0,13.0,95,0.00,,---,0.00,VWS V14.01,2013-03-12 16:00:00,
2013-03-12 12:02:00,50.5,49.1,29.94,East,101,2.0,8.0,95,0.00,,---,0.00,VWS V14.01,2013-03-12 16:02:00,
2013-03-12 12:05:00,50.6,48.9,29.94,ESE,116,2.0,8.0,94,0.00,,---,0.00,VWS V14.01,2013-03-12 16:05:00,
2013-03-12 12:07:00,50.9,49.2,29.93,ESE,123,6.0,7.0,94,0.00,,---,0.00,VWS V14.01,2013-03-12 16:07:00,
2013-03-12 12:10:00,50.9,49.2,29.93,ESE,119,8.0,8.0,94,0.00,,---,0.00,VWS V14.01,2013-03-12 16:10:00,
2013-03-12 12:13:00,51.2,49.2,29.93,East,95,4.0,13.0,93,0.00,,---,0.00,VWS V14.01,2013-03-12 16:13:00,
2013-03-12 12:15:00,51.2,49.2,29.93,South,169,9.0,13.0,93,0.00,,---,0.00,VWS V14.01,2013-03-12 16:15:00,
2013-03-12 12:18:00,51.4,49.2,29.93,SW,221,0.0,11.0,92,0.00,,---,0.00,VWS V14.01,2013-03-12 16:18:00,
2013-03-12 12:20:00,51.4,49.2,29.93,SW,221,0.0,11.0,92,0.00,,---,0.00,VWS V14.01,2013-03-12 16:20:00,
2013-03-12 12:23:00,51.5,49.0,29.93,SE,138,1.0,10.0,91,0.00,,---,0.00,VWS V14.01,2013-03-12 16:23:00,
2013-03-12 12:25:00,51.5,49.0,29.93,SE,138,1.0,10.0,91,0.00,,---,0.00,VWS V14.01,2013-03-12 16:25:00,
2013-03-12 12:28:00,51.7,49.2,29.92,SW,224,2.0,2.0,91,0.00,,---,0.00,VWS V14.01,2013-03-12 16:28:00,
2013-03-12 12:30:00,51.8,49.3,29.92,East,88,2.0,6.0,91,0.00,,---,0.00,VWS V14.01,2013-03-12 16:30:00,
2013-03-12 12:33:00,51.9,49.1,29.92,SE,126,4.0,8.0,90,0.00,,---,0.00,VWS V14.01,2013-03-12 16:33:00,
2013-03-12 12:35:00,51.9,49.4,29.92,SSE,153,2.0,7.0,91,0.00,,---,0.00,VWS V14.01,2013-03-12 16:35:00,
2013-03-12 12:38:00,52.1,49.3,29.91,ESE,104,0.0,0.0,90,0.00,,---,0.00,VWS V14.01,2013-03-12 16:38:00,
2013-03-12 12:40:00,52.0,49.2,29.92,ESE,104,0.0,8.0,90,0.00,,---,0.00,VWS V14.01,2013-03-12 16:40:00,
2013-03-12 12:44:00,52.1,49.0,29.91,SE,136,3.0,4.0,89,0.00,,---,0.00,VWS V14.01,2013-03-12 16:44:00,
2013-03-12 12:45:00,52.1,49.0,29.91,NNE,32,2.0,4.0,89,0.00,,---,0.00,VWS V14.01,2013-03-12 16:45:00,
2013-03-12 12:49:00,52.3,49.5,29.91,ESE,117,4.0,4.0,90,0.00,,---,0.00,VWS V14.01,2013-03-12 16:49:00,
2013-03-12 12:50:00,52.2,49.4,29.91,SSE,160,3.0,7.0,90,0.00,,---,0.00,VWS V14.01,2013-03-12 16:50:00,
2013-03-12 12:54:00,52.0,48.6,29.91,South,191,2.0,7.0,88,0.00,,---,0.00,VWS V14.01,2013-03-12 16:54:00,
2013-03-12 12:55:00,52.1,48.7,29.91,SE,129,4.0,7.0,88,0.00,,---,0.00,VWS V14.01,2013-03-12 16:55:00,
2013-03-12 12:59:00,51.8,48.4,29.91,South,172,1.0,3.0,88,0.00,,---,0.00,VWS V14.01,2013-03-12 16:59:00,
2013-03-12 13:00:00,51.8,48.4,29.91,ESE,123,2.0,7.0,88,0.00,,---,0.00,VWS V14.01,2013-03-12 17:00:00,
2013-03-12 13:04:00,51.7,48.6,29.91,SSE,150,0.0,6.0,89,0.00,,---,0.00,VWS V14.01,2013-03-12 17:04:00,
2013-03-12 13:05:00,51.6,48.2,29.91,SSE,157,2.0,7.0,88,0.00,,---,0.00,VWS V14.01,2013-03-12 17:05:00,
2013-03-12 13:10:00,51.5,48.4,29.91,SE,136,0.0,4.0,89,0.00,,---,0.00,VWS V14.01,2013-03-12 17:10:00,
2013-03-12 13:15:00,51.5,48.7,29.91,SSE,157,6.0,6.0,90,0.00,,---,0.00,VWS V14.01,2013-03-12 17:15:00,
2013-03-12 13:20:00,51.5,48.4,29.90,SSE,153,5.0,6.0,89,0.00,,---,0.00,VWS V14.01,2013-03-12 17:20:00,
2013-03-12 13:25:00,51.5,48.4,29.90,SE,144,0.0,5.0,89,0.00,,---,0.00,VWS V14.01,2013-03-12 17:25:00,
2013-03-12 13:30:00,51.6,48.8,29.90,SSW,211,1.0,8.0,90,0.00,,---,0.00,VWS V14.01,2013-03-12 17:30:00,
2013-03-12 13:31:00,51.7,48.9,29.90,SE,134,4.0,5.0,90,0.00,,---,0.00,VWS V14.01,2013-03-12 17:31:00,
2013-03-12 13:35:00,51.9,49.1,29.90,ESE,114,2.0,9.0,90,0.00,,---,0.00,VWS V14.01,2013-03-12 17:35:00,
2013-03-12 13:37:00,52.1,49.0,29.90,SSW,197,0.0,3.0,89,0.00,,---,0.00,VWS V14.01,2013-03-12 17:37:00,
2013-03-12 13:40:00,52.1,49.3,29.89,SSE,150,2.0,11.0,90,0.00,,---,0.00,VWS V14.01,2013-03-12 17:40:00,
2013-03-12 13:42:00,52.5,49.4,29.89,SSW,205,1.0,6.0,89,0.00,,---,0.00,VWS V14.01,2013-03-12 17:42:00,
2013-03-12 13:45:00,52.6,49.5,29.89,SSE,148,3.0,7.0,89,0.00,,---,0.00,VWS V14.01,2013-03-12 17:45:00,
2013-03-12 13:47:00,53.0,49.8,29.89,SSW,202,0.0,7.0,89,0.00,,---,0.00,VWS V14.01,2013-03-12 17:47:00,
2013-03-12 13:50:00,53.0,49.8,29.89,ESE,121,5.0,7.0,89,0.00,,---,0.00,VWS V14.01,2013-03-12 17:50:00,
2013-03-12 13:53:00,53.5,49.7,29.88,SE,128,0.0,11.0,87,0.00,,---,0.00,VWS V14.01,2013-03-12 17:53:00,
2013-03-12 13:55:00,53.5,49.7,29.88,SW,225,1.0,11.0,87,0.00,,---,0.00,VWS V14.01,2013-03-12 17:55:00,
2013-03-12 13:58:00,53.9,49.8,29.88,East,89,1.0,7.0,86,0.00,,---,0.00,VWS V14.01,2013-03-12 17:58:00,
2013-03-12 14:00:00,53.9,49.8,29.88,East,89,1.0,7.0,86,0.00,,---,0.00,VWS V14.01,2013-03-12 18:00:00,
2013-03-12 14:03:00,54.1,50.0,29.88,SE,143,1.0,10.0,86,0.00,,---,0.00,VWS V14.01,2013-03-12 18:03:00,
2013-03-12 14:05:00,54.1,50.0,29.88,SE,143,1.0,10.0,86,0.00,,---,0.00,VWS V14.01,2013-03-12 18:05:00,
2013-03-12 14:08:00,54.2,49.8,29.88,ESE,117,3.0,11.0,85,0.00,,---,0.00,VWS V14.01,2013-03-12 18:08:00,
2013-03-12 14:10:00,54.2,49.8,29.88,ESE,117,3.0,11.0,85,0.00,,---,0.00,VWS V14.01,2013-03-12 18:10:00,
2013-03-12 14:13:00,54.2,49.8,29.87,SE,146,6.0,10.0,85,0.00,,---,0.00,VWS V14.01,2013-03-12 18:13:00,
2013-03-12 14:15:00,54.2,49.8,29.87,SE,146,6.0,10.0,85,0.00,,---,0.00,VWS V14.01,2013-03-12 18:15:00,
2013-03-12 14:18:00,54.2,49.8,29.87,South,175,2.0,10.0,85,0.00,,---,0.00,VWS V14.01,2013-03-12 18:18:00,
2013-03-12 14:20:00,54.2,49.8,29.87,South,175,2.0,10.0,85,0.00,,---,0.00,VWS V14.01,2013-03-12 18:20:00,
2013-03-12 14:23:00,54.1,49.7,29.86,SW,223,5.0,7.0,85,0.00,,---,0.00,VWS V14.01,2013-03-12 18:23:00,
2013-03-12 14:25:00,54.1,49.7,29.86,ESE,105,6.0,12.0,85,0.00,,---,0.00,VWS V14.01,2013-03-12 18:25:00,
2013-03-12 14:29:00,54.0,49.9,29.86,SE,131,1.0,4.0,86,0.00,,---,0.00,VWS V14.01,2013-03-12 18:29:00,
2013-03-12 14:30:00,54.0,49.6,29.86,SE,124,4.0,12.0,85,0.00,,---,0.00,VWS V14.01,2013-03-12 18:30:00,
2013-03-12 14:34:00,53.9,49.8,29.86,SSE,152,7.0,8.0,86,0.00,,---,0.00,VWS V14.01,2013-03-12 18:34:00,
2013-03-12 14:35:00,54.0,49.9,29.86,SE,130,8.0,10.0,86,0.00,,---,0.00,VWS V14.01,2013-03-12 18:35:00,
2013-03-12 14:39:00,53.7,49.9,29.86,ESE,103,4.0,4.0,87,0.00,,---,0.00,VWS V14.01,2013-03-12 18:39:00,
2013-03-12 14:40:00,53.7,49.9,29.86,SSW,208,2.0,11.0,87,0.00,,---,0.00,VWS V14.01,2013-03-12 18:40:00,
2013-03-12 14:44:00,53.3,49.8,29.86,ESE,109,4.0,8.0,88,0.00,,---,0.00,VWS V14.01,2013-03-12 18:44:00,
2013-03-12 14:45:00,53.4,49.6,29.86,SE,132,0.0,9.0,87,0.00,,---,0.00,VWS V14.01,2013-03-12 18:45:00,
2013-03-12 14:49:00,53.0,49.8,29.85,SE,126,2.0,4.0,89,0.00,,---,0.00,VWS V14.01,2013-03-12 18:49:00,
2013-03-12 14:50:00,53.1,50.0,29.86,South,185,2.0,8.0,89,0.00,,---,0.00,VWS V14.01,2013-03-12 18:50:00,
2013-03-12 14:54:00,52.8,50.0,29.85,East,92,4.0,6.0,90,0.00,,---,0.00,VWS V14.01,2013-03-12 18:54:00,
2013-03-12 14:55:00,52.8,49.7,29.85,SE,131,1.0,9.0,89,0.00,,---,0.00,VWS V14.01,2013-03-12 18:55:00,
2013-03-12 15:00:00,52.6,50.0,29.85,SSW,212,1.0,3.0,91,0.00,,---,0.00,VWS V14.01,2013-03-12 19:00:00,
2013-03-12 15:05:00,52.5,50.0,29.85,SE,144,1.0,5.0,91,0.00,,---,0.00,VWS V14.01,2013-03-12 19:05:00,
2013-03-12 15:10:00,52.5,50.0,29.84,SSE,153,5.0,11.0,91,0.00,,---,0.00,VWS V14.01,2013-03-12 19:10:00,
2013-03-12 15:15:00,52.5,50.0,29.84,NNW,344,4.0,4.0,91,0.00,,---,0.00,VWS V14.01,2013-03-12 19:15:00,
2013-03-12 15:20:00,52.5,50.0,29.83,South,182,0.0,3.0,91,0.00,,---,0.00,VWS V14.01,2013-03-12 19:20:00,
2013-03-12 15:25:00,52.6,49.8,29.83,ESE,120,5.0,6.0,90,0.00,,---,0.00,VWS V14.01,2013-03-12 19:25:00,
2013-03-12 15:30:00,52.7,49.5,29.83,South,174,2.0,7.0,89,0.00,,---,0.00,VWS V14.01,2013-03-12 19:30:00,
2013-03-12 15:35:00,52.8,49.7,29.83,SW,230,0.0,7.0,89,0.00,,---,0.00,VWS V14.01,2013-03-12 19:35:00,
2013-03-12 15:36:00,52.9,49.8,29.83,SSE,161,0.0,9.0,89,0.00,,---,0.00,VWS V14.01,2013-03-12 19:36:00,
2013-03-12 15:40:00,53.0,49.8,29.83,South,175,4.0,14.0,89,0.00,,---,0.00,VWS V14.01,2013-03-12 19:40:00,
2013-03-12 15:41:00,53.3,50.2,29.83,SSE,155,2.0,9.0,89,0.00,,---,0.00,VWS V14.01,2013-03-12 19:41:00,
2013-03-12 15:45:00,53.4,49.9,29.83,SE,128,12.0,12.0,88,0.00,,---,0.00,VWS V14.01,2013-03-12 19:45:00,
2013-03-12 15:46:00,53.4,49.6,29.83,South,173,1.0,12.0,87,0.00,,---,0.00,VWS V14.01,2013-03-12 19:46:00,
2013-03-12 15:50:00,53.3,49.8,29.82,SSE,162,11.0,13.0,88,0.00,,---,0.00,VWS V14.01,2013-03-12 19:50:00,
2013-03-12 15:51:00,53.4,50.2,29.82,SE,145,3.0,11.0,89,0.00,,---,0.00,VWS V14.01,2013-03-12 19:51:00,
2013-03-12 15:55:00,53.4,50.2,29.82,SE,137,5.0,11.0,89,0.00,,---,0.00,VWS V14.01,2013-03-12 19:55:00,
2013-03-12 15:56:00,53.2,50.0,29.82,ESE,116,4.0,6.0,89,0.00,,---,0.00,VWS V14.01,2013-03-12 19:56:00,
2013-03-12 16:00:00,53.2,50.0,29.82,WSW,240,1.0,15.0,89,0.00,,---,0.00,VWS V14.01,2013-03-12 20:00:00,
2013-03-12 16:01:00,53.0,50.2,29.82,SE,135,8.0,9.0,90,0.00,,---,0.00,VWS V14.01,2013-03-12 20:01:00,
2013-03-12 16:05:00,52.9,50.0,29.82,SSE,150,1.0,11.0,90,0.00,,---,0.00,VWS V14.01,2013-03-12 20:05:00,
2013-03-12 16:07:00,52.7,50.2,29.82,SE,146,4.0,7.0,91,0.00,,---,0.00,VWS V14.01,2013-03-12 20:07:00,
2013-03-12 16:10:00,52.7,50.2,29.82,SE,125,1.0,7.0,91,0.00,,---,0.00,VWS V14.01,2013-03-12 20:10:00,
2013-03-12 16:12:00,52.7,50.5,29.81,SE,136,1.0,11.0,92,0.00,,---,0.00,VWS V14.01,2013-03-12 20:12:00,
2013-03-12 16:15:00,52.6,50.0,29.81,ESE,118,6.0,11.0,91,0.00,,---,0.00,VWS V14.01,2013-03-12 20:15:00,
2013-03-12 16:17:00,52.4,49.8,29.81,SE,125,3.0,6.0,91,0.00,,---,0.00,VWS V14.01,2013-03-12 20:17:00,
2013-03-12 16:20:00,52.4,49.8,29.81,ESE,122,4.0,10.0,91,0.00,,---,0.00,VWS V14.01,2013-03-12 20:20:00,
2013-03-12 16:22:00,52.3,50.0,29.81,SE,139,2.0,12.0,92,0.00,,---,0.00,VWS V14.01,2013-03-12 20:22:00,
2013-03-12 16:25:00,52.3,50.0,29.81,SE,139,1.0,12.0,92,0.00,,---,0.00,VWS V14.01,2013-03-12 20:25:00,
2013-03-12 16:27:00,52.2,50.0,29.80,SE,146,2.0,9.0,92,0.00,,---,0.00,VWS V14.01,2013-03-12 20:27:00,
2013-03-12 16:30:00,52.2,50.0,29.80,SE,146,3.0,9.0,92,0.00,,---,0.00,VWS V14.01,2013-03-12 20:30:00,
2013-03-12 16:33:00,52.2,50.0,29.80,SSE,148,1.0,13.0,92,0.00,,---,0.00,VWS V14.01,2013-03-12 20:33:00,
2013-03-12 16:35:00,52.2,50.0,29.80,SE,143,2.0,13.0,92,0.00,,---,0.00,VWS V14.01,2013-03-12 20:35:00,
2013-03-12 16:38:00,52.2,50.0,29.80,SE,143,8.0,13.0,92,0.00,,---,0.00,VWS V14.01,2013-03-12 20:38:00,
2013-03-12 16:40:00,52.2,50.0,29.80,SE,143,8.0,13.0,92,0.00,,---,0.00,VWS V14.01,2013-03-12 20:40:00,
2013-03-12 16:43:00,52.1,49.8,29.80,SE,137,2.0,5.0,92,0.00,,---,0.00,VWS V14.01,2013-03-12 20:43:00,
2013-03-12 16:45:00,52.1,49.8,29.80,SE,141,5.0,13.0,92,0.00,,---,0.00,VWS V14.01,2013-03-12 20:45:00,
2013-03-12 16:48:00,52.2,50.0,29.80,South,179,3.0,7.0,92,0.00,,---,0.00,VWS V14.01,2013-03-12 20:48:00,
2013-03-12 16:50:00,52.1,49.8,29.80,SSE,165,7.0,15.0,92,0.00,,---,0.00,VWS V14.01,2013-03-12 20:50:00,
2013-03-12 16:53:00,52.2,49.7,29.79,SE,142,1.0,3.0,91,0.00,,---,0.00,VWS V14.01,2013-03-12 20:53:00,
2013-03-12 16:55:00,52.2,49.7,29.79,SE,142,3.0,11.0,91,0.00,,---,0.00,VWS V14.01,2013-03-12 20:55:00,
2013-03-12 16:59:00,52.0,49.8,29.79,SW,218,5.0,12.0,92,0.00,,---,0.00,VWS V14.01,2013-03-12 20:59:00,
2013-03-12 17:00:00,52.0,49.5,29.79,ESE,103,10.0,15.0,91,0.00,,---,0.00,VWS V14.01,2013-03-12 21:00:00,
2013-03-12 17:04:00,52.3,50.0,29.79,SSW,197,5.0,15.0,92,0.00,,---,0.00,VWS V14.01,2013-03-12 21:04:00,
2013-03-12 17:05:00,52.2,50.0,29.79,East,101,7.0,15.0,92,0.00,,---,0.00,VWS V14.01,2013-03-12 21:05:00,
2013-03-12 17:09:00,52.2,50.0,29.79,SSE,157,12.0,12.0,92,0.01,,---,0.01,VWS V14.01,2013-03-12 21:09:00,
2013-03-12 17:10:00,52.3,50.0,29.79,ESE,105,2.0,15.0,92,0.00,,---,0.00,VWS V14.01,2013-03-12 21:10:00,
2013-03-12 17:15:00,52.0,49.8,29.78,ESE,109,6.0,8.0,92,0.01,,---,0.01,VWS V14.01,2013-03-12 21:15:00,
2013-03-12 17:20:00,51.9,49.9,29.78,South,172,2.0,8.0,93,0.01,,---,0.01,VWS V14.01,2013-03-12 21:20:00,
2013-03-12 17:25:00,51.9,49.9,29.77,SE,136,5.0,7.0,93,0.01,,---,0.01,VWS V14.01,2013-03-12 21:25:00,
2013-03-12 17:30:00,52.0,50.3,29.77,SSE,148,5.0,12.0,94,0.01,,---,0.01,VWS V14.01,2013-03-12 21:30:00,
2013-03-12 17:35:00,51.9,50.2,29.76,SE,143,2.0,12.0,94,0.01,,---,0.01,VWS V14.01,2013-03-12 21:35:00,
2013-03-12 17:37:00,51.9,50.2,29.76,SSE,156,2.0,9.0,94,0.01,,---,0.01,VWS V14.01,2013-03-12 21:37:00,
2013-03-12 17:40:00,51.9,50.2,29.76,SSE,166,5.0,13.0,94,0.01,,---,0.01,VWS V14.01,2013-03-12 21:40:00,
2013-03-12 17:42:00,51.8,50.1,29.76,SSE,167,1.0,13.0,94,0.01,,---,0.01,VWS V14.01,2013-03-12 21:42:00,
2013-03-12 17:45:00,51.8,50.1,29.76,SSE,151,3.0,13.0,94,0.01,,---,0.01,VWS V14.01,2013-03-12 21:45:00,
2013-03-12 17:47:00,51.5,49.8,29.75,SE,124,2.0,12.0,94,0.01,,---,0.01,VWS V14.01,2013-03-12 21:47:00,
2013-03-12 17:50:00,51.5,49.8,29.75,SW,221,2.0,12.0,94,0.01,,---,0.01,VWS V14.01,2013-03-12 21:50:00,
2013-03-12 17:52:00,51.6,50.2,29.75,South,169,5.0,15.0,95,0.02,,---,0.02,VWS V14.01,2013-03-12 21:52:00,
2013-03-12 17:55:00,51.6,50.2,29.75,SE,134,0.0,15.0,95,0.02,,---,0.02,VWS V14.01,2013-03-12 21:55:00,
2013-03-12 17:58:00,51.7,50.3,29.75,SE,130,0.0,12.0,95,0.02,,---,0.02,VWS V14.01,2013-03-12 21:58:00,
2013-03-12 18:00:00,51.7,50.3,29.75,SE,145,1.0,12.0,95,0.02,,---,0.02,VWS V14.01,2013-03-12 22:00:00,
2013-03-12 18:03:00,51.8,50.4,29.75,East,94,2.0,12.0,95,0.02,,---,0.02,VWS V14.01,2013-03-12 22:03:00,
2013-03-12 18:05:00,51.8,50.4,29.75,ESE,116,5.0,12.0,95,0.02,,---,0.02,VWS V14.01,2013-03-12 22:05:00,
2013-03-12 18:08:00,51.9,50.5,29.75,SSE,149,0.0,14.0,95,0.03,,---,0.03,VWS V14.01,2013-03-12 22:08:00,
2013-03-12 18:10:00,51.9,50.5,29.75,SSE,149,0.0,14.0,95,0.03,,---,0.03,VWS V14.01,2013-03-12 22:10:00,
2013-03-12 18:13:00,52.0,50.6,29.74,SE,137,1.0,13.0,95,0.03,,---,0.03,VWS V14.01,2013-03-12 22:13:00,
2013-03-12 18:15:00,52.0,50.6,29.74,SE,137,1.0,13.0,95,0.03,,---,0.03,VWS V14.01,2013-03-12 22:15:00,
2013-03-12 18:18:00,52.1,50.7,29.74,SSE,165,1.0,19.0,95,0.03,,---,0.04,VWS V14.01,2013-03-12 22:18:00,
2013-03-12 18:20:00,52.1,50.7,29.74,SSE,165,1.0,19.0,95,0.03,,---,0.04,VWS V14.01,2013-03-12 22:20:00,
2013-03-12 18:23:00,51.9,50.5,29.74,SE,138,3.0,16.0,95,0.03,,---,0.04,VWS V14.01,2013-03-12 22:23:00,
2013-03-12 18:25:00,51.9,50.5,29.74,SE,138,3.0,16.0,95,0.03,,---,0.04,VWS V14.01,2013-03-12 22:25:00,
2013-03-12 18:28:00,52.0,50.9,29.74,ENE,58,2.0,16.0,96,0.04,,---,0.05,VWS V14.01,2013-03-12 22:28:00,
2013-03-12 18:30:00,52.0,50.9,29.74,ENE,58,2.0,16.0,96,0.04,,---,0.05,VWS V14.01,2013-03-12 22:30:00,
2013-03-12 18:33:00,51.9,50.5,29.73,East,87,4.0,16.0,95,0.04,,---,0.05,VWS V14.01,2013-03-12 22:33:00,
2013-03-12 18:35:00,51.9,50.5,29.73,East,87,4.0,16.0,95,0.04,,---,0.05,VWS V14.01,2013-03-12 22:35:00,
2013-03-12 18:38:00,51.9,50.5,29.73,SSE,166,2.0,2.0,95,0.05,,---,0.06,VWS V14.01,2013-03-12 22:38:00,
2013-03-12 18:40:00,51.9,50.5,29.73,SSE,166,2.0,16.0,95,0.05,,---,0.06,VWS V14.01,2013-03-12 22:40:00,
2013-03-12 18:43:00,52.1,51.0,29.73,SE,128,4.0,10.0,96,0.05,,---,0.06,VWS V14.01,2013-03-12 22:43:00,
2013-03-12 18:45:00,52.1,51.0,29.73,SE,128,4.0,10.0,96,0.05,,---,0.06,VWS V14.01,2013-03-12 22:45:00,
2013-03-12 18:48:00,51.8,50.4,29.72,ESE,111,2.0,15.0,95,0.05,,---,0.06,VWS V14.01,2013-03-12 22:48:00,
2013-03-12 18:50:00,51.8,50.4,29.73,SE,138,15.0,15.0,95,0.05,,---,0.06,VWS V14.01,2013-03-12 22:50:00,
2013-03-12 18:53:00,51.9,50.8,29.73,ESE,119,2.0,5.0,96,0.05,,---,0.07,VWS V14.01,2013-03-12 22:53:00,
2013-03-12 18:55:00,51.8,50.7,29.73,ESE,103,4.0,15.0,96,0.06,,---,0.07,VWS V14.01,2013-03-12 22:55:00,
2013-03-12 18:59:00,52.0,50.9,29.73,South,169,3.0,7.0,96,0.06,,---,0.08,VWS V14.01,2013-03-12 22:59:00,
2013-03-12 19:00:00,52.0,50.9,29.73,SSE,152,4.0,12.0,96,0.06,,---,0.08,VWS V14.01,2013-03-12 23:00:00,
2013-03-12 19:04:00,52.1,51.0,29.73,South,175,6.0,14.0,96,0.08,,---,0.10,VWS V14.01,2013-03-12 23:04:00,
2013-03-12 19:05:00,52.1,51.0,29.72,SE,135,2.0,16.0,96,0.08,,---,0.10,VWS V14.01,2013-03-12 23:05:00,
2013-03-12 19:09:00,52.0,50.9,29.72,ESE,102,6.0,7.0,96,0.09,,---,0.12,VWS V14.01,2013-03-12 23:09:00,
2013-03-12 19:10:00,52.0,50.9,29.72,SE,144,0.0,14.0,96,0.09,,---,0.11,VWS V14.01,2013-03-12 23:10:00,
2013-03-12 19:14:00,52.1,51.0,29.72,SE,128,3.0,7.0,96,0.11,,---,0.14,VWS V14.01,2013-03-12 23:14:00,
2013-03-12 19:15:00,52.0,50.9,29.72,ESE,121,5.0,14.0,96,0.10,,---,0.13,VWS V14.01,2013-03-12 23:15:00,
2013-03-12 19:20:00,52.0,50.9,29.72,SSE,155,2.0,10.0,96,0.12,,---,0.16,VWS V14.01,2013-03-12 23:20:00,
2013-03-12 19:25:00,52.0,50.9,29.71,SSE,161,5.0,11.0,96,0.14,,---,0.18,VWS V14.01,2013-03-12 23:25:00,
2013-03-12 19:30:00,51.9,50.8,29.72,SE,143,1.0,6.0,96,0.14,,---,0.19,VWS V14.01,2013-03-12 23:30:00,
2013-03-12 19:35:00,51.9,50.8,29.71,SE,138,4.0,11.0,96,0.16,,---,0.21,VWS V14.01,2013-03-12 23:35:00,
2013-03-12 19:40:00,52.1,51.0,29.71,SSE,158,6.0,10.0,96,0.16,,---,0.22,VWS V14.01,2013-03-12 23:40:00,
2013-03-12 19:45:00,52.1,51.0,29.70,SSE,160,2.0,7.0,96,0.17,,---,0.23,VWS V14.01,2013-03-12 23:45:00,
2013-03-12 19:50:00,52.1,51.0,29.70,SSE,153,4.0,7.0,96,0.18,,---,0.24,VWS V14.01,2013-03-12 23:50:00,
2013-03-12 19:55:00,51.9,50.8,29.69,South,178,4.0,11.0,96,0.18,,---,0.24,VWS V14.01,2013-03-12 23:55:00,
2013-03-12 19:56:00,52.1,51.0,29.69,ESE,105,9.0,10.0,96,0.19,,---,0.26,VWS V14.01,2013-03-12 23:56:00,
2013-03-12 20:00:00,52.2,51.1,29.69,South,176,6.0,12.0,96,0.19,,---,0.26,VWS V14.01,2013-03-13 00:00:00,
2013-03-12 20:01:00,52.1,51.0,29.69,SE,146,3.0,11.0,96,0.19,,---,0.27,VWS V14.01,2013-03-13 00:01:00,
2013-03-12 20:05:00,52.1,51.0,29.69,SSW,198,3.0,11.0,96,0.20,,---,0.28,VWS V14.01,2013-03-13 00:05:00,
2013-03-12 20:07:00,52.1,51.0,29.69,SE,140,5.0,12.0,96,0.18,,---,0.28,VWS V14.01,2013-03-13 00:07:00,
2013-03-12 20:10:00,52.1,51.0,29.69,SSE,153,12.0,15.0,96,0.18,,---,0.28,VWS V14.01,2013-03-13 00:10:00,
2013-03-12 20:12:00,52.0,51.2,29.68,SSE,149,2.0,14.0,97,0.18,,---,0.29,VWS V14.01,2013-03-13 00:12:00,
2013-03-12 20:15:00,52.0,51.2,29.68,SE,144,0.0,14.0,97,0.18,,---,0.29,VWS V14.01,2013-03-13 00:15:00,
2013-03-12 20:17:00,51.9,51.1,29.68,SE,135,5.0,11.0,97,0.17,,---,0.30,VWS V14.01,2013-03-13 00:17:00,
2013-03-12 20:20:00,51.9,51.1,29.68,ESE,120,6.0,11.0,97,0.17,,---,0.30,VWS V14.01,2013-03-13 00:20:00,
2013-03-12 20:22:00,51.9,51.1,29.67,South,185,6.0,14.0,97,0.15,,---,0.31,VWS V14.01,2013-03-13 00:22:00,
2013-03-12 20:25:00,52.0,51.2,29.67,South,170,6.0,14.0,97,0.15,,---,0.31,VWS V14.01,2013-03-13 00:25:00,
2013-03-12 20:28:00,52.2,51.4,29.68,SE,126,13.0,13.0,97,0.14,,---,0.31,VWS V14.01,2013-03-13 00:28:00,
2013-03-12 20:30:00,52.2,51.4,29.68,SSE,168,6.0,13.0,97,0.14,,---,0.31,VWS V14.01,2013-03-13 00:30:00,
2013-03-12 20:33:00,52.4,51.6,29.68,SE,142,5.0,18.0,97,0.13,,---,0.31,VWS V14.01,2013-03-13 00:33:00,
2013-03-12 20:35:00,52.4,51.6,29.68,SE,143,2.0,18.0,97,0.13,,---,0.31,VWS V14.01,2013-03-13 00:35:00,
2013-03-12 20:38:00,52.4,51.6,29.68,SE,124,1.0,7.0,97,0.12,,---,0.32,VWS V14.01,2013-03-13 00:38:00,
2013-03-12 20:40:00,52.3,51.5,29.68,SW,222,3.0,7.0,97,0.12,,---,0.32,VWS V14.01,2013-03-13 00:40:00,
2013-03-12 20:43:00,52.3,51.5,29.68,SSE,166,1.0,12.0,97,0.11,,---,0.32,VWS V14.01,2013-03-13 00:43:00,
2013-03-12 20:45:00,52.3,51.5,29.68,SSE,166,0.0,12.0,97,0.11,,---,0.32,VWS V14.01,2013-03-13 00:45:00,
2013-03-12 20:48:00,52.4,51.6,29.68,SSE,148,3.0,12.0,97,0.10,,---,0.32,VWS V14.01,2013-03-13 00:48:00,
2013-03-12 20:50:00,52.4,51.6,29.68,SSE,148,3.0,12.0,97,0.10,,---,0.32,VWS V14.01,2013-03-13 00:50:00,
2013-03-12 20:53:00,52.3,51.5,29.68,SSW,207,2.0,6.0,97,0.09,,---,0.32,VWS V14.01,2013-03-13 00:53:00,
2013-03-12 20:55:00,52.3,51.5,29.68,SSW,207,2.0,6.0,97,0.09,,---,0.32,VWS V14.01,2013-03-13 00:55:00,
2013-03-12 20:58:00,52.2,51.4,29.68,SSW,213,1.0,13.0,97,0.08,,---,0.32,VWS V14.01,2013-03-13 00:58:00,
2013-03-12 21:00:00,52.2,51.4,29.68,SSW,213,1.0,13.0,97,0.08,,---,0.32,VWS V14.01,2013-03-13 01:00:00,
2013-03-12 21:03:00,52.4,51.6,29.68,South,169,2.0,14.0,97,0.06,,---,0.32,VWS V14.01,2013-03-13 01:03:00,
2013-03-12 21:05:00,52.4,51.6,29.68,South,169,2.0,14.0,97,0.06,,---,0.32,VWS V14.01,2013-03-13 01:05:00,
2013-03-12 21:08:00,52.6,51.8,29.68,SW,219,3.0,3.0,97,0.04,,---,0.32,VWS V14.01,2013-03-13 01:08:00,
2013-03-12 21:10:00,52.6,51.8,29.68,SSW,201,2.0,13.0,97,0.04,,---,0.32,VWS V14.01,2013-03-13 01:10:00,
2013-03-12 21:13:00,52.6,51.8,29.68,SW,236,4.0,6.0,97,0.03,,---,0.32,VWS V14.01,2013-03-13 01:13:00,
2013-03-12 21:15:00,52.6,51.8,29.68,SSW,203,6.0,7.0,97,0.04,,---,0.32,VWS V14.01,2013-03-13 01:15:00,
2013-03-12 21:19:00,52.5,51.7,29.68,SW,217,1.0,5.0,97,0.02,,---,0.32,VWS V14.01,2013-03-13 01:19:00,
2013-03-12 21:20:00,52.6,51.8,29.68,South,174,4.0,9.0,97,0.03,,---,0.32,VWS V14.01,2013-03-13 01:20:00,
2013-03-12 21:24:00,52.6,51.8,29.68,SSW,206,2.0,5.0,97,0.01,,---,0.32,VWS V14.01,2013-03-13 01:24:00,
2013-03-12 21:25:00,52.6,51.8,29.68,SSW,209,3.0,9.0,97,0.02,,---,0.32,VWS V14.01,2013-03-13 01:25:00,
2013-03-12 21:29:00,52.7,51.9,29.68,SSW,211,2.0,6.0,97,0.02,,---,0.33,VWS V14.01,2013-03-13 01:29:00,
2013-03-12 21:30:00,52.6,51.8,29.68,South,187,6.0,11.0,97,0.02,,---,0.33,VWS V14.01,2013-03-13 01:30:00,
2013-03-12 21:34:00,52.7,51.9,29.68,SSE,159,4.0,6.0,97,0.02,,---,0.33,VWS V14.01,2013-03-13 01:34:00,
2013-03-12 21:35:00,52.7,51.9,29.68,SW,219,1.0,6.0,97,0.02,,---,0.33,VWS V14.01,2013-03-13 01:35:00,
2013-03-12 21:40:00,52.4,51.6,29.68,South,171,4.0,13.0,97,0.01,,---,0.33,VWS V14.01,2013-03-13 01:40:00,
2013-03-12 21:45:00,52.6,51.8,29.68,SE,142,1.0,9.0,97,0.01,,---,0.33,VWS V14.01,2013-03-13 01:45:00,
2013-03-12 21:50:00,52.4,51.6,29.68,SSE,151,3.0,10.0,97,0.01,,---,0.33,VWS V14.01,2013-03-13 01:50:00,
2013-03-12 21:55:00,52.3,51.5,29.68,SE,142,1.0,2.0,97,0.01,,---,0.33,VWS V14.01,2013-03-13 01:55:00,
2013-03-12 22:00:00,52.3,51.5,29.68,SSE,153,2.0,8.0,97,0.01,,---,0.33,VWS V14.01,2013-03-13 02:00:00,
2013-03-12 22:01:00,52.2,51.4,29.68,SSW,196,2.0,8.0,97,0.01,,---,0.33,VWS V14.01,2013-03-13 02:01:00,
2013-03-12 22:05:00,52.2,51.4,29.67,SSW,209,2.0,8.0,97,0.01,,---,0.33,VWS V14.01,2013-03-13 02:05:00,
2013-03-12 22:06:00,52.1,51.3,29.68,SSW,208,2.0,6.0,97,0.01,,---,0.33,VWS V14.01,2013-03-13 02:06:00,
2013-03-12 22:10:00,52.1,51.3,29.68,SSW,196,2.0,6.0,97,0.01,,---,0.33,VWS V14.01,2013-03-13 02:10:00,
2013-03-12 22:12:00,52.0,51.2,29.68,South,191,4.0,10.0,97,0.01,,---,0.33,VWS V14.01,2013-03-13 02:12:00,
2013-03-12 22:15:00,51.9,51.1,29.68,South,191,2.0,10.0,97,0.01,,---,0.33,VWS V14.01,2013-03-13 02:15:00,
2013-03-12 22:17:00,51.8,51.0,29.68,South,169,3.0,6.0,97,0.01,,---,0.33,VWS V14.01,2013-03-13 02:17:00,
2013-03-12 22:20:00,51.8,51.0,29.68,WSW,244,1.0,6.0,97,0.01,,---,0.33,VWS V14.01,2013-03-13 02:20:00,
2013-03-12 22:22:00,51.7,50.9,29.68,SW,232,3.0,6.0,97,0.01,,---,0.33,VWS V14.01,2013-03-13 02:22:00,
2013-03-12 22:25:00,51.7,50.9,29.68,SW,218,2.0,6.0,97,0.01,,---,0.33,VWS V14.01,2013-03-13 02:25:00,
2013-03-12 22:27:00,51.8,51.0,29.68,SSW,197,6.0,10.0,97,0.01,,---,0.33,VWS V14.01,2013-03-13 02:27:00,
2013-03-12 22:30:00,51.8,51.0,29.68,South,187,4.0,10.0,97,0.01,,---,0.33,VWS V14.01,2013-03-13 02:30:00,
2013-03-12 22:32:00,51.8,51.0,29.68,SW,221,0.0,6.0,97,0.00,,---,0.33,VWS V14.01,2013-03-13 02:32:00,
2013-03-12 22:35:00,51.8,51.0,29.68,SSW,211,8.0,8.0,97,0.00,,---,0.33,VWS V14.01,2013-03-13 02:35:00,
2013-03-12 22:38:00,51.7,50.9,29.68,SW,234,1.0,8.0,97,0.00,,---,0.33,VWS V14.01,2013-03-13 02:38:00,
2013-03-12 22:40:00,51.7,50.9,29.68,SSW,207,6.0,8.0,97,0.00,,---,0.33,VWS V14.01,2013-03-13 02:40:00,
2013-03-12 22:43:00,51.5,50.7,29.68,SW,227,0.0,6.0,97,0.00,,---,0.33,VWS V14.01,2013-03-13 02:43:00,
2013-03-12 22:45:00,51.5,50.7,29.68,SW,227,0.0,6.0,97,0.00,,---,0.33,VWS V14.01,2013-03-13 02:45:00,
2013-03-12 22:48:00,51.6,50.8,29.68,South,171,3.0,3.0,97,0.00,,---,0.33,VWS V14.01,2013-03-13 02:48:00,
2013-03-12 22:50:00,51.6,50.8,29.68,South,171,3.0,3.0,97,0.00,,---,0.33,VWS V14.01,2013-03-13 02:50:00,
2013-03-12 22:53:00,51.6,50.8,29.68,SSW,210,0.0,0.0,97,0.00,,---,0.33,VWS V14.01,2013-03-13 02:53:00,
2013-03-12 22:55:00,51.6,50.8,29.68,SSW,210,0.0,3.0,97,0.00,,---,0.33,VWS V14.01,2013-03-13 02:55:00,
2013-03-12 22:59:00,51.5,50.7,29.68,SW,225,2.0,2.0,97,0.00,,---,0.33,VWS V14.01,2013-03-13 02:59:00,
2013-03-12 23:00:00,51.5,50.7,29.68,SW,225,0.0,5.0,97,0.00,,---,0.33,VWS V14.01,2013-03-13 03:00:00,
2013-03-12 23:04:00,51.3,50.5,29.68,SSW,211,0.0,5.0,97,0.00,,---,0.33,VWS V14.01,2013-03-13 03:04:00,
2013-03-12 23:05:00,51.3,50.5,29.68,South,183,5.0,8.0,97,0.00,,---,0.33,VWS V14.01,2013-03-13 03:05:00,
2013-03-12 23:09:00,51.2,50.4,29.68,SSW,211,0.0,1.0,97,0.00,,---,0.33,VWS V14.01,2013-03-13 03:09:00,
2013-03-12 23:10:00,51.2,50.4,29.68,SSW,211,0.0,5.0,97,0.00,,---,0.33,VWS V14.01,2013-03-13 03:10:00,
2013-03-12 23:14:00,51.2,50.4,29.68,SW,232,0.0,4.0,97,0.00,,---,0.33,VWS V14.01,2013-03-13 03:14:00,
2013-03-12 23:15:00,51.2,50.4,29.68,South,183,3.0,3.0,97,0.00,,---,0.33,VWS V14.01,2013-03-13 03:15:00,
2013-03-12 23:20:00,51.2,50.4,29.68,South,171,2.0,5.0,97,0.00,,---,0.33,VWS V14.01,2013-03-13 03:20:00,
2013-03-12 23:25:00,51.2,50.4,29.68,South,171,2.0,3.0,97,0.00,,---,0.33,VWS V14.01,2013-03-13 03:25:00,
2013-03-12 23:30:00,51.1,50.3,29.68,SSW,200,0.0,5.0,97,0.00,,---,0.33,VWS V14.01,2013-03-13 03:30:00,
2013-03-12 23:35:00,51.0,50.2,29.68,SSE,150,1.0,5.0,97,0.00,,---,0.33,VWS V14.01,2013-03-13 03:35:00,
2013-03-12 23:36:00,51.1,50.3,29.68,SW,221,0.0,3.0,97,0.00,,---,0.33,VWS V14.01,2013-03-13 03:36:00,
2013-03-12 23:40:00,51.1,50.3,29.68,SW,221,0.0,3.0,97,0.00,,---,0.33,VWS V14.01,2013-03-13 03:40:00,
2013-03-12 23:41:00,51.1,50.3,29.68,SW,225,3.0,5.0,97,0.00,,---,0.33,VWS V14.01,2013-03-13 03:41:00,
2013-03-12 23:45:00,51.2,50.4,29.68,SSW,209,2.0,5.0,97,0.00,,---,0.33,VWS V14.01,2013-03-13 03:45:00,
2013-03-12 23:46:00,51.2,50.4,29.68,SW,223,3.0,4.0,97,0.00,,---,0.33,VWS V14.01,2013-03-13 03:46:00,
2013-03-12 23:50:00,51.2,50.4,29.68,WSW,238,3.0,6.0,97,0.00,,---,0.33,VWS V14.01,2013-03-13 03:50:00,
2013-03-12 23:51:00,51.2,50.4,29.68,SSW,211,1.0,6.0,97,0.00,,---,0.33,VWS V14.01,2013-03-13 03:51:00,
2013-03-12 23:55:00,51.2,50.4,29.68,SSW,211,2.0,6.0,97,0.00,,---,0.33,VWS V14.01,2013-03-13 03:55:00,
2013-03-12 23:56:00,51.1,50.3,29.68,SSW,211,1.0,3.0,97,0.00,,---,0.33,VWS V14.01,2013-03-13 03:56:00,